TimeMST,TemperatureF,Dew PointF,Humidity,Sea Level PressureIn,VisibilityMPH,Wind Direction,Wind SpeedMPH,Gust SpeedMPH,PrecipitationIn,Events,Conditions,WindDirDegrees,DateUTC
12:53 AM,24.1,12.0,60,30.30,10.0,Calm,Calm,-,N/A,,Clear,0,2013-02-02 07:53:00
1:53 AM,21.9,10.0,60,30.31,10.0,NE,3.5,-,N/A,,Clear,50,2013-02-02 08:53:00
2:53 AM,19.0,8.1,62,30.33,10.0,Calm,Calm,-,N/A,,Clear,0,2013-02-02 09:53:00
3:53 AM,19.0,7.0,59,30.32,10.0,North,4.6,-,N/A,,Clear,360,2013-02-02 10:53:00
4:53 AM,19.9,6.1,55,30.31,10.0,SW,3.5,-,N/A,,Clear,230,2013-02-02 11:53:00
5:53 AM,23.0,5.0,46,30.32,10.0,West,5.8,-,N/A,,Clear,280,2013-02-02 12:53:00
6:53 AM,19.0,6.1,57,30.35,10.0,SE,5.8,-,N/A,,Clear,130,2013-02-02 13:53:00
7:53 AM,18.0,5.0,57,30.36,10.0,Calm,Calm,-,N/A,,Clear,0,2013-02-02 14:53:00
8:53 AM,18.0,8.1,65,30.39,10.0,Calm,Calm,-,N/A,,Clear,0,2013-02-02 15:53:00
9:53 AM,26.1,8.1,47,30.39,10.0,Calm,Calm,-,N/A,,Clear,0,2013-02-02 16:53:00
10:53 AM,34.0,10.0,37,30.36,10.0,SSE,3.5,-,N/A,,Clear,160,2013-02-02 17:53:00
11:53 AM,35.1,15.1,44,30.36,10.0,South,3.5,-,N/A,,Clear,180,2013-02-02 18:53:00
12:53 PM,42.1,18.0,38,30.31,10.0,East,4.6,-,N/A,,Clear,90,2013-02-02 19:53:00
1:53 PM,35.1,21.0,57,30.35,10.0,NNE,11.5,-,N/A,,Clear,30,2013-02-02 20:53:00
2:53 PM,37.9,18.0,45,30.37,10.0,WSW,4.6,-,N/A,,Clear,250,2013-02-02 21:53:00
3:53 PM,41.0,17.1,38,30.35,10.0,Calm,Calm,-,N/A,,Clear,0,2013-02-02 22:53:00
4:53 PM,39.0,15.1,38,30.34,10.0,Calm,Calm,-,N/A,,Clear,0,2013-02-02 23:53:00
5:53 PM,30.9,17.1,57,30.35,10.0,West,8.1,-,N/A,,Clear,260,2013-02-03 00:53:00
6:53 PM,30.0,16.0,56,30.36,10.0,SW,5.8,-,N/A,,Clear,230,2013-02-03 01:53:00
7:53 PM,30.0,16.0,56,30.37,10.0,WSW,3.5,-,N/A,,Clear,240,2013-02-03 02:53:00
8:53 PM,27.0,16.0,63,30.36,10.0,Calm,Calm,-,N/A,,Clear,0,2013-02-03 03:53:00
9:53 PM,26.1,14.0,60,30.33,10.0,NNW,3.5,-,N/A,,Clear,330,2013-02-03 04:53:00
10:53 PM,27.0,15.1,61,30.27,10.0,SSW,5.8,-,N/A,,Clear,210,2013-02-03 05:53:00
11:53 PM,26.1,15.1,63,30.27,10.0,West,4.6,-,N/A,,Clear,280,2013-02-03 06:53:00